Regional Weather Roundup
Issued by NWS Cleveland, OH

Home | Current Version | Previous Version | Text Only | Print | Product List | Glossary Off
Versions: 1 2 3 4 5 6 7 8 9 10 11 12 13 14 15 16 17 18 19 20 21 22 23 24 25 26 27 28 29 30 31 32 33 34 35 36 37 38 39 40 41 42 43 44 45 46 47 48 49 50

000
ASUS41 KCLE 260400
RWRCLE
OHIO REGIONAL WEATHER ROUNDUP
NATIONAL WEATHER SERVICE WILMINGTON, OH
1200 AM EDT TUE MAY 26 2015

NOTE: "FAIR" INDICATES FEW OR NO CLOUDS BELOW 12,000 FEET WITH NO
SIGNIFICANT WEATHER AND/OR OBSTRUCTIONS TO VISIBILITY.

OHZ001>008-015>018-024>027-034-035-043-044-260500-
   NORTHWEST OHIO

CITY           SKY/WX    TMP DP  RH WIND       PRES   REMARKS
DEFIANCE       CLOUDY    72  62  71 S9        30.05R
FINDLAY        MOCLDY    71  62  73 S14       30.07R
TOLEDO EXPRESS CLOUDY    72  62  71 SW10      30.05R
TOLEDO EXEC    PTCLDY    72  61  68 S13       30.05R
LIMA           MOCLDY    69  62  78 S10       30.09R
$$

OHZ009>014-019>023-028>033-038-089-260500-
   NORTHEAST OHIO

CITY           SKY/WX    TMP DP  RH WIND       PRES   REMARKS
CLE-HOPKINS    MOCLDY    72  60  66 S8        30.10R
CLE-LAKEFRONT  PTCLDY    75  60  59 S13       30.06R
CUY CO. ARPT   NOT AVBL
LORAIN-ELYRIA  PTCLDY    70  61  73 SW9       30.09R
ASHTABULA      PTCLDY    71  63  75 SW8       30.09R
AKRON-CANTON   MOCLDY    72  59  63 SW8       30.13R
WOOSTER        NOT AVBL
MANSFIELD      MOCLDY    70  61  73 SW12      30.12R
YOUNGSTOWN     CLOUDY    74  61  63 SW10      30.11R
$$

OHZ042-051>053-060>062-070>072-077>081-260500-
  SOUTHWEST OHIO

CITY           SKY/WX    TMP DP  RH WIND       PRES   REMARKS
CINC-COVINGTON MOCLDY    69  64  84 S6        30.13R
CINC-LUNKEN    MOCLDY    69  64  84 S6        30.13R
HAMILTON       MOCLDY    71  64  78 S5        30.12R
DAYTON         NOT AVBL
WRIGHT-PAT AFB CLOUDY    69  64  83 S8        30.11R
DAYTON GENERAL MOCLDY    68  64  87 S8        30.11R
WILMINGTON     PTCLDY    66  63  90 S6        30.13R
$$

OHZ036-037-039>041-045>050-054>059-063>069-073>076-082>088-260500-
  CENTRAL AND SOUTHEAST OHIO

CITY           SKY/WX    TMP DP  RH WIND       PRES   REMARKS
COLUMBUS       MOCLDY    73  61  65 SW6       30.11S
OSU AIRPORT    MOCLDY    71  61  70 SW6       30.12R
BOLTON FIELD   NOT AVBL
RICKENBACK AFB NOT AVBL
NEWARK         MOCLDY    67  60  78 CALM      30.12R
MARION         PTCLDY    68  60  75 SW6       30.11R
LANCASTER      CLOUDY    68  62  81 CALM      30.13R
ZANESVILLE     CLEAR     69  61  75 CALM      30.12S
NEW PHILLY     PTCLDY    74  62  66 S5        30.13R
$$



USA.gov is the U.S. government's official web portal to all federal, state and local government web resources and services.